Location: Byszew
(52.1813°N, 19.2693°E)
Time: 22:41:24
(UTC+00:00)

SPROUT - Pass Details

Date: 11 July 2022
Orbit: 588 x 598 km, 97.9° (Epoch: 14 August)

Event Time Altitude Azimuth Distance (km) Brightness Sun altitude
Exits shadow 22:50:13 19° 135° (SE) 1,423 ? -15.8°
Maximum altitude 22:52:55 47° 69° (ENE) 787 ? -15.8°
Drops below altitude 10° 22:56:58 10° 355° (N) 1,938 ? -15.8°
Sets 22:59:11 0° 350° (N) 2,846 ? -15.8°
